Location: Unnamed
(29.8582°N, 98.1264°W)
Time: 09:27:11
(UTC-06:00)

Hubble Space Telescope - Visible Passes

Search period start: 20 January 2026 00:00
Search period end: 30 January 2026 00:00
Orbit: 479 x 481 km, 28.5° (Epoch: 20 January)

Date Brightness Start Highest point End Pass type
(mag) Time Alt. Az. Time Alt. Az. Time Alt. Az.
20 Jan 2.8 19:02:24 10° S 19:04:12 13° SSE 19:05:41 11° SE visible
21 Jan 2.9 18:32:34 10° S 18:34:25 13° SSE 18:36:15 10° SE visible
21 Jan 2.8 20:10:18 10° SW 20:11:49 21° SW 20:11:49 21° SW visible
22 Jan 1.4 19:40:29 10° SW 19:43:47 39° S 19:43:47 39° S visible
23 Jan 1.3 19:10:39 10° SW 19:14:12 40° SSE 19:15:42 27° ESE visible
24 Jan 1.4 18:40:48 10° SW 18:44:21 40° SSE 18:47:35 12° E visible
24 Jan 3.0 20:20:17 10° W 20:21:43 22° WSW 20:21:43 22° WSW visible
25 Jan 1.0 19:50:25 10° W 19:53:34 58° SW 19:53:34 58° SW visible
26 Jan 0.6 19:20:31 10° W 19:24:16 72° S 19:25:25 41° ESE visible
27 Jan 0.6 18:50:36 10° W 18:54:21 72° S 18:57:16 16° E visible
27 Jan 3.4 20:30:24 10° W 20:31:24 17° W 20:31:24 17° W visible
28 Jan 1.6 20:00:27 10° W 20:03:16 42° WSW 20:03:16 42° WSW visible
29 Jan 1.0 19:30:30 10° W 19:34:11 54° S 19:35:10 40° SE visible
